[[{"header":{"parameterUnit":"m.s-1","parameterCategory":1,"la1":30.2991,"la2":30.254,"lo1":-89.0895,"lo2":-89.0444,"dy":0.0017,"dx":0.0017,"nx":28,"ny":28,"refTime":"2024-05-15T21:00:00:Z","depth":0,"parameterNumber":2,"parameterNumberName":"U-component_of_WINDS"},"data":[0,0,0,0,0,0,0,0,0,0,0,0,0,0,0,0,0,0,0,0,0,0,0,0,0,0,0,0,0,0,0,0,0,0,0,0,0,0,0,0,0,0,0,0,0,0,0,0,0,0,0,0,0,0,0,0,0,0,-2.6742,-2.6741,0,-2.6641,-2.664,-2.6639,-2.6564,-2.6563,-2.6562,-2.6562,-2.6455,-2.6453,-2.645,0,0,0,0,0,0,0,0,0,0,0,0,0,-2.6868,-2.6866,-2.6742,-2.6741,-2.674,-2.6642,-2.664,-2.6639,-2.6564,-2.6563,-2.6562,-2.6561,-2.6456,-2.6453,-2.645,0,0,0,0,0,0,0,0,0,0,0,0,0,-2.6795,-2.6865,-2.6743,-2.6691,-2.6685,-2.6642,-2.664,-2.6638,-2.6564,-2.6563,-2.6562,-2.6561,-2.6456,-2.6453,-2.645,-2.6449,0,0,-2.644,-2.6438,0,0,0,0,0,0,0,0,-2.6799,-2.679,-2.67,-2.6694,-2.6688,-2.6614,-2.6645,-2.6575,-2.6564,-2.661,-2.6562,-2.6561,-2.6508,-2.6501,-2.6484,-2.6444,-2.6439,-2.6439,-2.6437,-2.6436,-2.6435,0,0,0,0,0,0,0,-2.6804,-2.6794,-2.6702,-2.6698,-2.6691,-2.6672,-2.666,-2.6631,-2.6566,-2.6606,-2.66,-2.6589,-2.6505,-2.6487,-2.6481,-2.6438,-2.6439,-2.6436,-2.6434,-2.6433,-2.6392,-2.6393,0,0,0,0,0,0,-2.6818,-2.6799,-2.6705,-2.6699,-2.6742,-2.667,-2.6657,-2.6639,-2.6566,-2.6554,-2.659,-2.6586,-2.6493,-2.6485,-2.6477,-2.647,-2.6436,-2.6433,-2.6431,-2.6391,-2.6392,-2.6393,0,0,0,0,0,0,-2.6821,-2.681,-2.671,-2.6747,-2.6733,-2.6669,-2.6649,-2.6637,-2.6619,-2.6554,-2.6542,-2.6584,-2.6492,-2.6481,-2.6457,-2.6465,-2.6431,-2.6428,-2.639,-2.6391,-2.6392,-2.6457,0,0,0,0,0,0,-2.6825,-2.6812,-2.6811,-2.6748,-2.6732,-2.6692,-2.6649,-2.6636,-2.6614,-2.6608,-2.6545,-2.6534,-2.6491,-2.6462,-2.6453,-2.646,-2.6426,-2.6389,-2.639,-2.6392,-2.6453,-2.646,-2.6466,0,0,0,0,0,-2.6829,-2.6833,-2.6811,-2.6801,-2.673,-2.6693,-2.6683,-2.6634,-2.6615,-2.6614,-2.6572,-2.6536,-2.6466,-2.646,-2.645,-2.6455,-2.6388,-2.639,-2.6392,-2.6451,-2.6459,-2.6466,0,0,0,0,0,0,-2.6896,-2.6823,-2.6799,-2.6782,-2.6744,-2.668,-2.6676,-2.6644,-2.661,-2.6605,-2.6545,-2.6532,-2.6513,-2.6482,-2.6476,-2.645,-2.6422,-2.6423,-2.6471,-2.6478,-2.6484,-2.6491,-2.6423,0,0,0,0,0,-2.691,-2.6887,-2.6824,-2.6815,-2.6797,-2.6741,-2.6723,-2.6688,-2.6646,-2.6629,-2.6586,-2.6546,-2.6514,-2.6495,-2.6463,-2.645,-2.6434,-2.6449,-2.6455,-2.646,-2.646,-2.645,-2.6455,-2.64,-2.64,-2.64,0,0,-2.6936,-2.6893,-2.6882,-2.6827,-2.6794,-2.677,-2.6727,-2.6704,-2.6686,-2.6625,-2.6599,-2.6566,-2.6517,-2.6498,-2.6488,-2.6472,-2.6473,-2.6463,-2.6468,-2.6464,-2.6453,-2.6458,-2.6463,-2.6401,-2.6401,-2.64,0,0,-2.6971,-2.6937,-2.6926,-2.6894,-2.6845,-2.6807,-2.6805,-2.6746,-2.6722,-2.6695,-2.6649,-2.6626,-2.6574,-2.6541,-2.6518,-2.6543,-2.6508,-2.6534,-2.6565,-2.6556,-2.656,-2.6564,-2.6571,-2.6575,-2.6535,-2.6535,-2.6535,0,-2.7009,-2.6973,-2.6923,-2.6903,-2.688,-2.6827,-2.6814,-2.6785,-2.6728,-2.6713,-2.6697,-2.663,-2.6594,-2.6566,-2.6572,-2.6556,-2.655,-2.6539,-2.6564,-2.6567,-2.657,-2.6576,-2.6579,-2.6538,-2.6538,-2.6538,-2.6537,0,-2.7021,-2.6997,-2.6994,-2.6941,-2.6918,-2.6901,-2.6849,-2.6831,-2.68,-2.6765,-2.6738,-2.6693,-2.665,-2.6642,-2.661,-2.6609,-2.6601,-2.6576,-2.6545,-2.6579,-2.6584,-2.6586,-2.6543,-2.6542,-2.6541,-2.654,0,0,-2.7092,-2.7015,-2.7014,-2.6989,-2.6932,-2.6912,-2.6894,-2.6853,-2.6839,-2.6802,-2.6784,-2.6742,-2.6719,-2.6692,-2.6657,-2.6649,-2.6671,-2.6624,-2.6622,-2.6633,-2.6665,-2.6683,-2.6686,-2.6649,-2.6649,-2.6649,-2.6668,0,-2.7117,-2.7081,-2.7037,-2.7016,-2.6993,-2.6943,-2.6927,-2.689,-2.6857,-2.6831,-2.6794,-2.6765,-2.6737,-2.672,-2.6711,-2.667,-2.6676,-2.6668,-2.6629,-2.6628,-2.664,-2.6689,-2.6707,-2.6728,-2.667,-2.6671,-2.6671,0,-2.714,-2.7107,-2.7084,-2.7029,-2.7018,-2.7004,-2.6964,-2.6941,-2.6898,-2.6874,-2.6846,-2.6808,-2.6786,-2.6762,-2.6729,-2.6725,-2.6707,-2.6685,-2.6684,-2.6676,-2.665,-2.668,-2.6733,-2.6735,-2.6674,-2.6673,-2.6673,0,-2.7192,-2.7142,-2.7121,-2.7102,-2.7038,-2.703,-2.7003,-2.6959,-2.6938,-2.6903,-2.6888,-2.6851,-2.683,-2.6802,-2.6756,-2.6743,-2.6727,-2.67,-2.6705,-2.6707,-2.6702,-2.6702,-2.675,-2.6695,-2.6695,-2.6695,-2.6695,0,-2.7222,-2.7209,-2.7144,-2.7131,-2.7115,-2.7065,-2.7051,-2.7019,-2.6981,-2.6961,-2.6916,-2.6898,-2.6839,-2.6813,-2.6777,-2.6755,-2.6746,-2.6725,-2.6715,-2.6728,-2.673,-2.6713,-2.6709,-2.6696,-2.6695,-2.6695,-2.6695,0,-2.7276,-2.7232,-2.7206,-2.7149,-2.7134,-2.7125,-2.7075,-2.7061,-2.7026,-2.7001,-2.6992,-2.6937,-2.6905,-2.6857,-2.681,-2.6786,-2.6768,-2.6753,-2.6783,-2.6776,-2.6784,-2.6783,-2.682,-2.6822,-2.6769,-2.6769,-2.677,0,-2.7297,-2.7286,-2.7229,-2.7212,-2.7187,-2.7161,-2.714,-2.7091,-2.7071,-2.7022,-2.7013,-2.6978,-2.6946,-2.6897,-2.6852,-2.6816,-2.6799,-2.6815,-2.6793,-2.6806,-2.6796,-2.6797,-2.6795,-2.6819,-2.682,-2.682,-2.6821,0,-2.7338,-2.7317,-2.7289,-2.7253,-2.7229,-2.7199,-2.7165,-2.7155,-2.7098,-2.7078,-2.7045,-2.7021,-2.6974,-2.6939,-2.6897,-2.6868,-2.6834,-2.6829,-2.6828,-2.6839,-2.6855,-2.6845,-2.6794,-2.6827,-2.6826,-2.6826,-2.6826,-2.6825,-2.7374,-2.7362,-2.732,-2.729,-2.7261,-2.7231,-2.7215,-2.7179,-2.7151,-2.7109,-2.7083,-2.7051,-2.7009,-2.6949,-2.6922,-2.6896,-2.6882,-2.6881,-2.688,-2.688,-2.6884,-2.6862,-2.6889,-2.6889,-2.6888,-2.6888,-2.6888,0,-2.7411,-2.7383,-2.7356,-2.7311,-2.7288,-2.7261,-2.7224,-2.7205,-2.7178,-2.7142,-2.7113,-2.7076,-2.7042,-2.6996,-2.6958,-2.6947,-2.693,-2.6938,-2.6937,-2.6931,-2.69,-2.6903,-2.6952,-2.6952,-2.6952,-2.6952,-2.6952,-2.6952,-2.7428,-2.7406,-2.7381,-2.7344,-2.7314,-2.7284,-2.7265,-2.7237,-2.7208,-2.7168,-2.7141,-2.7111,-2.7071,-2.7031,-2.6998,-2.6986,-2.6973,-2.6985,-2.6967,-2.6939,-2.6933,-2.6927,-2.693,-2.6983,-2.6984,-2.7,-2.7,-2.7]},{"header":{"parameterUnit":"m.s-1","parameterCategory":1,"la1":30.2991,"la2":30.254,"lo1":-89.0895,"lo2":-89.0444,"dy":0.0017,"dx":0.0017,"nx":28,"ny":28,"refTime":"2024-05-15T21:00:00:Z","depth":0,"parameterNumber":3,"parameterNumberName":"V-component_of_WINDS"},"data":[0,0,0,0,0,0,0,0,0,0,0,0,0,0,0,0,0,0,0,0,0,0,0,0,0,0,0,0,0,0,0,0,0,0,0,0,0,0,0,0,0,0,0,0,0,0,0,0,0,0,0,0,0,0,0,0,0,0,2.3919,2.3919,0,2.3917,2.3917,2.3917,2.3976,2.3977,2.3979,2.398,2.3974,2.3973,2.3971,0,0,0,0,0,0,0,0,0,0,0,0,0,2.3971,2.397,2.3919,2.3919,2.3919,2.3917,2.3917,2.3917,2.3975,2.3977,2.3979,2.3981,2.3975,2.3973,2.3971,0,0,0,0,0,0,0,0,0,0,0,0,0,2.3957,2.397,2.3919,2.3948,2.3951,2.3917,2.3917,2.3917,2.3975,2.3977,2.398,2.3982,2.3975,2.3973,2.3971,2.3909,0,0,2.3963,2.3962,0,0,0,0,0,0,0,0,2.3958,2.3955,2.3944,2.3946,2.3949,2.3949,2.3934,2.3914,2.3974,2.3966,2.398,2.3983,2.3964,2.3963,2.3957,2.3908,2.3908,2.3963,2.3962,2.3961,2.396,0,0,0,0,0,0,0,2.3958,2.3955,2.3919,2.3944,2.3947,2.396,2.3961,2.393,2.3951,2.3967,2.3971,2.397,2.3966,2.3959,2.3957,2.3908,2.3963,2.3961,2.396,2.3959,2.381,2.3808,0,0,0,0,0,0,2.3956,2.3956,2.3919,2.3919,2.3959,2.3958,2.3958,2.3947,2.3952,2.3955,2.3968,2.3973,2.3962,2.396,2.3957,2.3886,2.3961,2.3958,2.3957,2.3812,2.3809,2.3807,0,0,0,0,0,0,2.3957,2.3952,2.3919,2.3938,2.3935,2.3954,2.3941,2.3945,2.3939,2.3953,2.3957,2.3957,2.3964,2.3961,2.3921,2.3886,2.3957,2.3955,2.3815,2.3811,2.3808,2.3742,0,0,0,0,0,0,2.3958,2.3952,2.3929,2.3937,2.3934,2.3883,2.3939,2.3944,2.3935,2.3941,2.3944,2.3947,2.3965,2.3924,2.3918,2.3884,2.3953,2.3818,2.3814,2.3809,2.3747,2.3737,2.3727,0,0,0,0,0,2.396,2.3909,2.3928,2.3923,2.3906,2.3881,2.3879,2.3902,2.3932,2.3909,2.3918,2.3947,2.3891,2.392,2.3914,2.3878,2.3821,2.3815,2.381,2.3752,2.3739,2.3727,0,0,0,0,0,0,2.3895,2.3911,2.3931,2.3883,2.388,2.3891,2.3862,2.3887,2.3875,2.3881,2.391,2.391,2.3866,2.3868,2.3899,2.3819,2.3861,2.3854,2.3819,2.3807,2.3797,2.3797,2.3951,0,0,0,0,0,2.3875,2.3855,2.387,2.3825,2.3823,2.3843,2.3833,2.3851,2.3849,2.3848,2.3854,2.3851,2.3833,2.382,2.3804,2.3748,2.375,2.3721,2.3711,2.3702,2.3696,2.3668,2.3655,2.3788,2.3788,2.3788,0,0,2.3834,2.384,2.3825,2.3812,2.3813,2.379,2.3841,2.3815,2.3799,2.3844,2.3807,2.3812,2.3809,2.3762,2.3741,2.3762,2.366,2.3695,2.3689,2.3687,2.3661,2.3648,2.3637,2.3784,2.3785,2.3786,0,0,2.3747,2.375,2.3714,2.3713,2.3714,2.3728,2.3719,2.3726,2.3732,2.3696,2.373,2.371,2.3678,2.3675,2.3669,2.3583,2.3609,2.3577,2.3524,2.3497,2.3486,2.3477,2.3447,2.3436,2.3571,2.357,2.357,0,2.3695,2.3664,2.3691,2.3664,2.3657,2.3699,2.3662,2.366,2.3655,2.3649,2.3673,2.3635,2.3636,2.3589,2.3568,2.3562,2.3553,2.3577,2.3486,2.3477,2.3469,2.344,2.3429,2.3567,2.3567,2.3567,2.3568,0,2.3601,2.3578,2.3549,2.3545,2.3535,2.3503,2.3525,2.3511,2.3531,2.3542,2.3505,2.3508,2.3494,2.3484,2.3502,2.344,2.3453,2.3481,2.3524,2.3452,2.3426,2.3415,2.3561,2.3562,2.3564,2.3565,0,0,2.3473,2.3485,2.3474,2.3473,2.3477,2.346,2.343,2.3418,2.3406,2.3401,2.3376,2.3349,2.3375,2.3369,2.3387,2.3362,2.3295,2.3394,2.3394,2.3376,2.3228,2.3207,2.3194,2.3313,2.3311,2.3309,2.3228,0,2.3389,2.334,2.3364,2.3312,2.3292,2.3331,2.3305,2.3304,2.3314,2.3298,2.3308,2.3289,2.3324,2.3321,2.3299,2.3308,2.3266,2.3314,2.329,2.3289,2.329,2.3181,2.3159,2.3082,2.3218,2.3216,2.3215,0,2.3286,2.3278,2.3224,2.3233,2.3226,2.3202,2.3194,2.3178,2.3178,2.3187,2.318,2.3204,2.3175,2.3217,2.3177,2.321,2.3201,2.3204,2.3202,2.3201,2.3248,2.3177,2.3058,2.3047,2.3199,2.3201,2.3202,0,2.3199,2.3175,2.314,2.3138,2.3148,2.313,2.3133,2.3136,2.3127,2.3119,2.3114,2.3102,2.3096,2.3085,2.3106,2.3135,2.3063,2.3107,2.3069,2.3069,2.3052,2.3053,2.2931,2.3046,2.3046,2.3046,2.3046,0,2.3104,2.3069,2.3102,2.308,2.3042,2.3071,2.3032,2.3039,2.3042,2.3022,2.3054,2.3035,2.3063,2.3045,2.3061,2.3026,2.3022,2.3028,2.3033,2.3026,2.3025,2.3021,2.3027,2.3043,2.3044,2.3044,2.3045,0,2.3001,2.3021,2.2986,2.2998,2.3001,2.2972,2.2983,2.2963,2.2976,2.295,2.2945,2.2964,2.2946,2.2966,2.2948,2.2958,2.2911,2.2923,2.2912,2.2915,2.2877,2.2881,2.2748,2.2733,2.2857,2.2855,2.2854,0,2.2939,2.2914,2.2924,2.2914,2.2916,2.2898,2.2891,2.2917,2.2907,2.2906,2.2887,2.2872,2.2861,2.283,2.2842,2.2829,2.2841,2.2795,2.2839,2.2833,2.2841,2.2843,2.284,2.2786,2.2785,2.2784,2.2783,0,2.2828,2.2839,2.2827,2.2819,2.2809,2.2804,2.28,2.279,2.2817,2.2805,2.2788,2.2779,2.2763,2.2747,2.2738,2.274,2.2766,2.2769,2.276,2.2752,2.2747,2.275,2.2888,2.2772,2.2773,2.2774,2.2774,2.2775,2.2744,2.2724,2.2729,2.2714,2.2715,2.2712,2.2694,2.2705,2.2692,2.2681,2.2698,2.2676,2.2677,2.2668,2.2667,2.265,2.267,2.2656,2.2653,2.2649,2.2644,2.275,2.2649,2.2649,2.2649,2.2649,2.265,0,2.2635,2.2641,2.2627,2.2623,2.2612,2.2638,2.2636,2.2625,2.2606,2.2606,2.2596,2.2576,2.2561,2.2572,2.256,2.2544,2.2556,2.254,2.2542,2.2542,2.2627,2.2636,2.2531,2.2531,2.2531,2.2531,2.2531,2.2532,2.2577,2.2545,2.2558,2.2526,2.2531,2.2512,2.2509,2.2505,2.2506,2.2483,2.2472,2.2479,2.2484,2.2472,2.246,2.2464,2.2458,2.2438,2.2446,2.2525,2.2536,2.2547,2.2557,2.2436,2.2436,2.2363,2.2362,2.2362]}]]